Location: Innsbruck
(47.2657°N, 11.3914°E)
Time: 23:55:28
(UTC+02:00)

Nauka - Pass Details

Date: 26 September 2021
Orbit: 417 x 423 km, 51.6° (Epoch: 16 October)

Event Time Altitude Azimuth Distance (km) Brightness Sun altitude
Rises 19:19:02 0° 269° (W) 2,360 ? -3.4°
Reaches altitude 10° 19:21:12 10° 277° (W) 1,498 ? -3.8°
Maximum altitude 19:24:25 42° 350° (N) 610 ? -4.3°
Drops below altitude 10° 19:27:39 10° 63° (ENE) 1,503 ? -4.9°
Enters shadow 19:28:48 - 68° (ENE) 1,955 ? -5.1°
